Overview Statistics Trail Chart Weather Telemetry Raw packets
 

This is the latest recevied weather packets stored in our database for station/object WW5JC. If no packets are shown the sender has not sent any weather packets the latest 10 day(s).

<< 46 47 48 49 50 51 52 >>
Time Temp. Humidity Pressure Rain* Wind** Luminosity Snow
1788312155 31.67° C 56% 1015.5 hPa 0 mm - 0 W/m² -
1788311850 31.67° C 56% 1015.5 hPa 0 mm - 0 W/m² -
1788311549 32.22° C 56% 1015.4 hPa 0 mm - 0 W/m² -
1788311244 32.22° C 55% 1015.4 hPa 0 mm - 0 W/m² -
1788310940 32.22° C 55% 1015.2 hPa 0 mm - 0 W/m² -
1788310638 32.78° C 54% 1015.3 hPa 0 mm - 1 W/m² -
1788310334 32.78° C 54% 1015.2 hPa 0 mm - 2 W/m² -
1788310034 33.33° C 53% 1015.1 hPa 0 mm - 3 W/m² -
1788309728 33.33° C 52% 1015.2 hPa 0 mm - 6 W/m² -
1788309418 33.89° C 52% 1015.1 hPa 0 mm - 8 W/m² -
1788309113 33.89° C 51% 1015.1 hPa 0 mm - 11 W/m² -
1788308809 33.89° C 50% 1015.2 hPa 0 mm - 15 W/m² -
1788308508 34.44° C 49% 1015.4 hPa 0 mm - 18 W/m² -
1788308204 34.44° C 49% 1015.4 hPa 0 mm - 21 W/m² -
1788307898 34.44° C 49% 1015.5 hPa 0 mm - 24 W/m² -
1788307594 34.44° C 49% 1015.5 hPa 0 mm - 27 W/m² -
1788307293 35° C 48% 1015.5 hPa 0 mm - 32 W/m² -
1788306988 35° C 47% 1015.4 hPa 0 mm - 38 W/m² -
1788306684 35° C 48% 1015.5 hPa 0 mm - 43 W/m² -
1788306383 35° C 47% 1015.5 hPa 0 mm - 35 W/m² -
1788306078 35° C 47% 1015.6 hPa 0 mm - 44 W/m² -
1788305773 35.56° C 47% 1015.6 hPa 0 mm - 51 W/m² -
1788305469 35.56° C 46% 1015.6 hPa 0 mm - 48 W/m² -
1788305164 36.11° C 45% 1015.7 hPa 0 mm - 104 W/m² -
1788304864 36.11° C 45% 1015.6 hPa 0 mm - 118 W/m² -

* Rain latest hour (hover to see other rain measurements)
** Current wind speed in m/s (hover to see current wind gust speed)